Regional Weather Roundup
Issued by NWS State College, PA

Home | Current Version | Previous Version | Graphics & Text | Print | Product List | Glossary On
Versions: 1 2 3 4 5 6 7 8 9 10 11 12 13 14 15 16 17 18 19 20 21 22 23 24 25 26 27 28 29 30 31 32 33 34 35 36 37 38 39 40 41 42 43 44 45 46 47 48 49 50
000
ASUS41 KCTP 200403
RWRCTP

REGIONAL WEATHER ROUNDUP
NATIONAL WEATHER SERVICE STATE COLLEGE PA
1100 PM EST THU JAN 19 2017

Note: "fair" indicates few or no clouds below 12,000 feet with no
significant weather and/or obstructions to visibility.

* = STATION THAT DOES NOT REPORT PRECIPITATION /E.G. RAIN...SNOW...ETC/
    THUNDER OR FOG.

PAZ002>004-007>009-013>016-020>023-029>032-200500-
WESTERN PENNSYLVANIA

CITY           SKY/WX    TMP DP  RH WIND       PRES   REMARKS
ERIE           CLOUDY    30  28  92 E6        29.94F FOG
MEADVILLE      CLOUDY    33  29  85 E3        29.91F
FRANKLIN*        N/A     30  28  93 E5        29.93F
NEW CASTLE     FAIR      31  30  96 E5        29.93F
BEAVER COUNTY  NOT AVBL
BUTLER*        CLOUDY    30  28  93 E5        29.95F
PITTSBURGH INT CLOUDY    32  32 100 CALM      29.92F
PITTSBURGH     CLOUDY    36  31  82 NE5       29.91F
INDIANA*       CLEAR     34  32  93 E6        29.96F
LATROBE        CLOUDY    32  32 100 N3        29.94F FOG
WASHINGTON CO* CLOUDY    28  28 100 CALM      29.92F
$$

PAZ004>006-010>012-017>019-024>028-033>037-041-042-045-046-049>053-200500-
CENTRAL PENNSYLVANIA

CITY           SKY/WX    TMP DP  RH WIND       PRES   REMARKS
BRADFORD       FOG       32  32 100 SE5       29.94S VSB 1/4
DUBOIS         CLOUDY    31  28  89 E6        29.93F FOG
CLEARFIELD     CLOUDY    29  29 100 NE7       29.96F
JOHNSTOWN      CLOUDY    33  32  96 CALM      29.92F
ALTOONA        CLOUDY    30  29  96 E3        29.98S FOG
STATE COLLEGE  CLOUDY    30  29  96 CALM      29.99S
WILLIAMSPORT   CLOUDY    32  29  88 CALM      30.00F
SELINSGROVE    CLOUDY    29  28  96 CALM      30.02S
FT INDIANTOWN  CLOUDY    29  29 100 CALM      30.03S
CAPITAL CITY   CLOUDY    37  32  82 CALM      30.03R
HARRISBURG     CLOUDY    35  33  92 E3        30.03R
YORK           CLOUDY    30  30 100 CALM      30.03R FOG
$$

PAZ038>040-043-044-047-048-054-055-060>062-067>071-200500-
EASTERN PENNSYLVANIA

CITY           SKY/WX    TMP DP  RH WIND       PRES   REMARKS
SCRANTON       CLOUDY    37  32  82 E6        29.98S
MOUNT POCONO   CLOUDY    32  29  88 N6        29.95S
ALLENTOWN      CLOUDY    36  30  79 CALM      30.03R
QUAKERTOWN*    CLEAR     28  28 100 CALM      30.04R
READING        CLOUDY    33  32  96 CALM      30.03R
LANCASTER      CLOUDY    35  33  92 CALM      30.03S
COATESVILLE      N/A    N/A N/A N/A MISG        N/A
POTTSTOWN      CLOUDY    31  30  96 CALM      30.05S
BLUE BELL      CLOUDY    30  30 100 CALM      30.03S
DOYLESTOWN     CLEAR     33  30  88 CALM      30.03R
WILLOW GROVE   NOT AVBL
NORTH PHILA    CLEAR     35  31  85 CALM      30.06R
PHILADELPHIA   CLOUDY    38  33  82 CALM      30.05F
$$



USA.gov is the U.S. government's official web portal to all federal, state and local government web resources and services.